SHIJIAN-17 (SJ-17) (41838 NORAD) Tracking and Keplerian Element Data

This shows tracking and keplerian element data for the satellite.

Feedback or suggestion? Click here.




ElementValue
Catalog41838
NameSHIJIAN-17 (SJ-17)
Epoch Orbit777
Epoch Day351.762343
Epoch Year2018
RAAN98.9854
Inclination0.3515
Eccentricity0.0001125
Argument of Perigee227.1622
Mean Anonmoly128.8527
Mean Motion1.00271222
Decay Rate-2.47E-06
L11 41838U 16065A 18351.76234300 -.00000247 00000-0 00000+0 0 9998
L22 41838 0.3515 98.9854 0001125 227.1622 128.8527 1.00271222 7775

Live tracking and technical data element details for SHIJIAN-17 (SJ-17) (NORAD 41838). SHIJIAN-17 (SJ-17) can be tracked NOW for your location showing map with azimuth and elevation plus other details from your city location.

Track the satellite on the map from your city or location and see movement details for azimuth, elevation, latitude, longitude, range, height, and movement on the map or in text.







IsCatalogInMostPopularTable: catalog: 41838, numindb: 142
Update: records affected: 1



GetName: 41838 SHIJIAN-17 (SJ-17)

Hit Count: updated at: Tue, 18 Dec 2018 21:58:26 GMT